AirNav   Duncan Aviation - Near you to keep you flying
 
 1289 users online  

52A Madison Municipal Airport
Madison, Georgia, USA

GOING TO MADISON?


FAA INFORMATION EFFECTIVE 19 MAY 2022

Location

FAA Identifier: 52A
Lat/Long: 33-36-43.6500N 083-27-37.6000W
33-36.727500N 083-27.626667W
33.6121250,-83.4604444
(estimated)
Elevation: 694 ft. / 211.5 m (surveyed)
Variation: 04W (1995)
From city: 2 miles NE of MADISON, GA
Time zone: UTC -4 (UTC -5 during Standard Time)
Zip code: 30650

Airport Operations

Airport use: Open to the public
Control tower: no
ARTCC: ATLANTA CENTER
FSS: MACON FLIGHT SERVICE STATION
NOTAMs facility: MCN (NOTAM-D service available)
Attendance: MON-SAT 0900-1500, ALL SUN 0900 - 1200
Wind indicator: lighted
Segmented circle: yes
Lights: ACTVT MIRL RY 14/32 & PAPI RY 14 - CTAF.
Beacon: white-green (lighted land airport)
Operates sunset to sunrise.

Airport Communications

CTAF/UNICOM: 122.8
ATLANTA APPROACH: 132.475 ;0615-2200
ATLANTA DEPARTURE: 132.475 ;0615-2200
WX AWOS-3PT at D73 (15 nm NW): 120.825 (678-635-3668)
WX AWOS-3 at 3J7 (16 nm E): 124.525 (706-453-0017)
WX AWOS-3 at CVC (19 nm W): 118.725 (770-385-7057)
  • APCH/DEP SVC PRVDD BY ATLANTA TRACON 0615-2200 ON FREQS 132.475/291.1 OTHER TIMES BY ATLANTA ARTCC ON FREQS 127.5/316.05 (ATHENS RCAG).

Nearby radio navigation aids

VOR radial/distance  VOR name  Freq  Var
AHNr199/21.2ATHENS VOR/DME109.6000E

 
NDB name  Hdg/Dist  Freq  Var  ID
ALCOVY097/16.137003WVOF ...- --- ..-.
BARROW COUNTY167/20.440405WBMW -... -- .--
CULVR335/31.538004WUMB ..- -- -...

Airport Services

Fuel available: 100LL
100LL:SELF SVC FUEL AVBL 24 HRS WITH CREDIT CARD.
Parking: tiedowns
Airframe service: MINOR
Powerplant service: MINOR
Bottled oxygen: NONE
Bulk oxygen: NONE

Runway Information

Runway 14/32

Dimensions: 3806 x 75 ft. / 1160 x 23 m
Surface: asphalt, in fair condition
Weight bearing capacity: 
Single wheel: 20.0
Runway edge lights: medium intensity
RUNWAY 14  RUNWAY 32
Latitude: 33-36.970000N33-36.484500N
Longitude: 083-27.863833W083-27.389000W
Elevation: 636.3 ft.694.0 ft.
Traffic pattern: leftright
Runway heading: 145 magnetic, 141 true325 magnetic, 321 true
Displaced threshold: no1131 ft.
Declared distances: TORA:3806 TODA:3806 ASDA:3740 LDA:3740TORA:3806 TODA:3806 ASDA:3806 LDA:2675
Markings: nonprecision, in fair conditionnonprecision, in fair condition
Visual slope indicator: 2-light PAPI on left (3.00 degrees glide path)
Touchdown point: yes, no lightsyes, no lights
Obstructions: 33 ft. trees, 761 ft. from runway, 233 ft. left of centerline, 17:1 slope to clear15 ft. road, 201 ft. from runway
9 FT SECURITY FENCE CROSSES APPH 175 FT FM RY END, AND 15 FT ROAD CROSSES APCH 200 FT FROM RY END.

Airport Ownership and Management from official FAA records

Ownership: Publicly-owned
Owner: CITY OF MADISON
132 NORTH MAIN STREET
MADISON, GA 30650
Phone 706-342-1251
Manager: WM DAVID NUNN
132 NORTH MAIN STREET
MADISON, GA 30650
Phone 706-342-1251
ARPT PHONE 706-342-9857

Airport Operational Statistics

Aircraft based on the field: 13
Single engine airplanes: 13
    
Aircraft operations: avg 90/week *
57% transient general aviation
43% local general aviation
* for 12-month period ending 31 December 2020

Additional Remarks

FOR CD CTC ATLANTA APCH AT 678-364-6131, WHEN APCH CLSD CTC ATLANTA ARTCC AT 770-210-7692.

Instrument Procedures

NOTE: All procedures below are presented as PDF files. If you need a reader for these files, you should download the free Adobe Reader.

NOT FOR NAVIGATION. Please procure official charts for flight.
FAA instrument procedures published for use from 19 May 2022 at 0901Z to 16 June 2022 at 0900Z.

 
IAPs - Instrument Approach Procedures
RNAV (GPS) RWY 14   download (196KB)
VOR/DME-A   download (176KB)
NOTE: Special Take-Off Minimums/Departure Procedures apply   download (189KB)

Other nearby airports with instrument procedures:

D73 - Cy Nunnally Memorial Airport (15 nm NW)
3J7 - Greene County Regional Airport (16 nm E)
KCVC - Covington Municipal Airport (19 nm W)
KAHN - Athens/Ben Epps Airport (21 nm N)
KWDR - Barrow County Airport (25 nm NW)
 
Loc | Ops | Rwys | IFR | FBO | Links
Com | Nav | Svcs | Stats | Notes
Area around 52A (Madison Municipal Airport)
 
Road maps at: MapQuest Bing Google
 
Aerial photo
WARNING: Photo may not be current or correct
Aerial photo of 52A (Madison Municipal Airport)
Do you have a better or more recent aerial photo of Madison Municipal Airport that you would like to share? If so, please send us your photo.

 
Sectional chart

 
Airport diagram
CAUTION: Diagram may not be current
Diagram of 52A (Madison Municipal Airport)
 
Airport distance calculator
Flying to Madison Municipal Airport? Find the distance to fly.

From to 52A

Sunrise and sunset
Times for 27-May-2022
 Local
(UTC-4)
 Zulu
(UTC)
Morning civil twilight05:5909:59
Sunrise06:2710:27
Sunset20:3500:35
Evening civil twilight21:0301:03

Current date and time
Zulu (UTC)  27-May-2022 13:45:03
Local (UTC-4)  27-May-2022 09:45:03
 
METAR
KD73 
15nm NW 
271335Z AUTO 28003KT 10SM BKN012 BKN019 BKN025 A2996 RMK AO2
K3J7 
16nm E 
271335Z AUTO 25003KT 10SM BKN010 OVC016 21/18 A2995 RMK AO2 LTG DSNT NW
KCVC 
19nm W 
271335Z AUTO 00000KT 10SM RA OVC011 21/18 A2994 RMK AO2
KAHN 
21nm N 
271310Z VRB05KT 10SM BKN012 21/18 A2994 RMK AO2 T02110183
KWDR 
25nm NW 
271335Z AUTO 24004KT 10SM OVC013 20/17 A2997 RMK AO2 LTG DSNT SE
KMLJ 
30nm S 
271337Z AUTO 22003KT 10SM BKN015 24/22 A2998 RMK AO2
TAF
KAHN 
21nm N 
271126Z 2712/2812 18006KT P6SM BKN010 OVC015 TEMPO 2712/2714 BKN008 FM271400 22006KT P6SM SCT008 BKN025 FM271700 23011G21KT P6SM SCT045 FM280100 27005KT P6SM FEW050 FM280900 00000KT P6SM SKC
NOTAMs
Click for the latest NOTAMs
NOTAMs are issued by the DoD/FAA and will open in a separate window not controlled by AirNav.

 

 
 

FBO, Fuel Providers, and Aircraft Ground Support

  
 Business Name 
 
 Contact 
 
 Services / Description 
 
Fuel Prices
 
Comments
  
Reynolds Aviation Services 706-342-9857
no information available

If you are affiliated with Reynolds Aviation Services and would like to show here your services, contact info, web link, logo, and more, click here
100LL
SS $5.75 
 Updated 18-May-2022
 
   write
SS=Self service
Update Fuel Prices
 

Would you like to see your business listed on this page?

 If your business provides an interesting product or service to pilots, flight crews, aircraft, or users of the Madison Municipal Airport, you should consider listing it here.  To start the listing process, click on the button below
 
Add a business
 

Other Pages about Madison Municipal Airport

www16.brinkster.com/...
 
Update a link
 
Copyright © AirNav, LLC. All rights reserved. Privacy Policy  Contact